FW8987 Weather Reports


time (UTC)temp
C
wind
direction
speed
KPH
gust
KPH
rain 1hr
cm
rain 24hr
cm
rain mn
cm
humidity
%
barometer
mb
20260507223048 0 187 0.0 1.6 0.00 0.00 0.00 91 1022.5
20260507222023 0 0.0 0.0 0.00 0.00 0.00 90 1022.5
20260507221019 0 0.0 0.0 0.00 0.00 0.00 89 1022.6
20260507220054 0 0.0 0.0 0.00 0.00 0.00 86 1022.4
20260507215030 1 190 0.0 1.6 0.00 0.00 0.00 86 1022.4
20260507214024 1 0.0 0.0 0.00 0.00 0.00 85 1022.3
20260507213020 1 0.0 0.0 0.00 0.00 0.00 84 1022.2
20260507212035 1 0.0 0.0 0.00 0.00 0.00 85 1022.0
20260507211031 1 0.0 0.0 0.00 0.00 0.00 86 1022.0
20260507210046 1 0.0 0.0 0.00 0.00 0.00 87 1021.8
20260507205021 1 0.0 0.0 0.00 0.00 0.00 86 1021.6
20260507204017 1 0.0 0.0 0.00 0.00 0.00 86 1021.5
20260507203032 1 0.0 0.0 0.00 0.00 0.00 84 1021.5
20260507202027 2 0.0 0.0 0.00 0.00 0.00 81 1021.4
20260507201043 2 0.0 0.0 0.00 0.00 0.00 80 1021.3
20260507200018 3 182 0.0 1.6 0.00 0.00 0.00 78 1021.1
20260507195054 3 0.0 0.0 0.00 0.00 0.00 74 1021.0
20260507194029 5 0.0 0.0 0.00 0.00 0.00 72 1021.0
20260507193024 5 175 0.0 1.6 0.00 0.00 0.00 69 1020.8
20260507192021 5 171 0.0 1.6 0.00 0.00 0.00 69 1020.5
20260507191035 6 172 0.0 1.6 0.00 0.00 0.00 67 1020.5
20260507190030 6 0.0 0.0 0.00 0.00 0.00 65 1020.2
20260507185027 6 132 1.6 4.8 0.00 0.00 0.00 63 1020.3
20260507184021 6 0.0 0.0 0.00 0.00 0.00 63 1020.1
20260507183037 7 147 1.6 3.2 0.00 0.00 0.00 60 1020.0
20260507182034 7 147 1.6 4.8 0.00 0.00 0.00 58 1019.9
20260507181027 7 156 1.6 4.8 0.00 0.00 0.00 57 1019.7
20260507180022 8 143 1.6 4.8 0.00 0.00 0.00 56 1019.6
20260507175018 8 120 3.2 11.3 0.00 0.00 0.00 56 1019.4
20260507174033 8 105 4.8 11.3 0.00 0.00 0.00 55 1019.4
20260507173028 8 75 4.8 12.9 0.00 0.00 0.00 56 1019.2
20260507172024 9 82 6.4 14.5 0.00 0.00 0.00 56 1019.1
20260507171024 10 107 4.8 9.7 0.00 0.00 0.00 53 1019.0
20260507170035 10 113 3.2 9.7 0.00 0.00 0.00 51 1018.9
20260507165030 10 92 4.8 11.3 0.00 0.00 0.00 50 1018.6
20260507164025 10 100 4.8 14.5 0.00 0.00 0.00 49 1018.5
20260507163020 10 96 8.0 20.9 0.00 0.00 0.00 48 1018.4
20260507162016 10 99 8.0 20.9 0.00 0.00 0.00 48 1018.3
20260507161032 11 99 6.4 20.9 0.00 0.00 0.00 49 1018.3
20260507160048 11 89 6.4 16.1 0.00 0.00 0.00 51 1018.2
20260507155023 11 83 9.7 24.1 0.00 0.00 0.00 51 1018.0
20260507154018 10 104 4.8 12.9 0.00 0.00 0.00 51 1017.8
20260507153034 11 95 6.4 17.7 0.00 0.00 0.00 50 1017.7
20260507152030 12 148 3.2 6.4 0.00 0.00 0.00 45 1017.6
20260507151045 13 164 3.2 12.9 0.00 0.00 0.00 43 1017.8
20260507150020 12 184 3.2 6.4 0.00 0.00 0.00 40 1017.7
20260507145035 13 175 1.6 3.2 0.00 0.00 0.00 40 1017.6
20260507144031 12 187 1.6 6.4 0.00 0.00 0.00 39 1017.6
20260507143026 13 174 3.2 11.3 0.00 0.00 0.00 40 1017.5
20260507142022 13 142 1.6 6.4 0.00 0.00 0.00 42 1017.3
20260507141017 12 124 3.2 9.7 0.00 0.00 0.00 42 1017.4
20260507140033 12 173 3.2 6.4 0.00 0.00 0.00 44 1017.3
20260507135109 12 156 3.2 6.4 0.00 0.00 0.00 44 1017.4
20260507134023 12 100 4.8 17.7 0.00 0.00 0.00 46 1017.4
20260507133019 12 67 6.4 14.5 0.00 0.00 0.00 46 1017.4
20260507132033 11 94 6.4 16.1 0.00 0.00 0.00 48 1017.4
20260507131029 11 77 4.8 11.3 0.00 0.00 0.00 48 1017.4
20260507130024 11 73 6.4 11.3 0.00 0.00 0.00 50 1017.4
20260507125019 11 91 4.8 9.7 0.00 0.00 0.00 50 1017.1
20260507124035 11 103 3.2 9.7 0.00 0.00 0.00 51 1017.0
20260507123029 11 88 4.8 11.3 0.00 0.00 0.00 50 1017.0
20260507122021 11 125 3.2 6.4 0.00 0.00 0.00 52 1017.0
20260507121016 10 91 6.4 14.5 0.00 0.00 0.00 56 1017.0
20260507120032 9 105 4.8 12.9 0.00 0.00 0.00 60 1017.0
20260507115047 9 100 4.8 11.3 0.00 0.00 0.00 60 1017.0
20260507114023 9 137 3.2 6.4 0.00 0.00 0.00 62 1016.8
20260507113018 8 167 3.2 4.8 0.00 0.00 0.00 61 1016.9
20260507112034 10 133 4.8 11.3 0.00 0.00 0.00 60 1016.9
20260507111049 10 114 4.8 14.5 0.00 0.00 0.00 56 1017.0
20260507110045 10 112 4.8 9.7 0.00 0.00 0.00 57 1017.0
20260507105020 9 166 1.6 4.8 0.00 0.00 0.00 60 1017.1
20260507104035 10 171 1.6 4.8 0.00 0.00 0.00 59 1016.9
20260507103051 8 189 1.6 3.2 0.00 0.00 0.00 65 1016.8
20260507102026 7 214 1.6 3.2 0.00 0.00 0.00 66 1017.0
20260507101022 8 147 3.2 6.4 0.00 0.00 0.00 56 1017.0
20260507100016 10 203 1.6 3.2 0.00 0.00 0.00 53 1016.6
20260507095032 10 171 1.6 3.2 0.00 0.00 0.00 50 1016.3
20260507094028 12 95 3.2 9.7 0.00 0.00 0.00 49 1016.0
20260507093044 11 189 3.2 6.4 0.00 0.00 0.00 51 1016.0
20260507092038 12 150 3.2 6.4 0.00 0.00 0.00 51 1016.1
20260507091033 11 147 1.6 3.2 0.00 0.00 0.00 53 1016.1
20260507090028 11 124 3.2 9.7 0.00 0.00 0.00 51 1015.9
20260507085105 10 131 3.2 4.8 0.00 0.00 0.00 51 1016.1
20260507084020 11 116 3.2 4.8 0.00 0.00 0.00 50 1016.1
20260507083035 10 243 3.2 9.7 0.00 0.00 0.00 47 1016.1
20260507082031 10 142 1.6 3.2 0.00 0.00 0.00 50 1016.0
20260507081027 9 226 1.6 4.8 0.00 0.00 0.00 54 1016.0
20260507080022 8 145 1.6 4.8 0.00 0.00 0.00 55 1015.9
20260507075018 8 189 1.6 3.2 0.00 0.00 0.00 56 1016.0
20260507074033 8 90 3.2 6.4 0.00 0.00 0.00 59 1015.9
20260507073029 8 108 3.2 6.4 0.00 0.00 0.00 63 1015.8
20260507072025 8 82 1.6 4.8 0.00 0.00 0.00 59 1015.7
20260507071020 7 137 1.6 3.2 0.00 0.00 0.00 62 1015.7
20260507070055 7 145 1.6 3.2 0.00 0.00 0.00 66 1015.6
20260507065031 6 147 1.6 3.2 0.00 0.00 0.00 69 1015.7
20260507064026 6 166 0.0 1.6 0.00 0.00 0.00 73 1015.4
20260507063021 5 130 1.6 3.2 0.00 0.00 0.00 76 1015.3
20260507062017 5 182 1.6 3.2 0.00 0.00 0.00 78 1015.3
20260507061033 5 205 0.0 1.6 0.00 0.00 0.00 79 1015.1
20260507060027 5 210 0.0 1.6 0.00 0.00 0.00 79 1015.0
20260507055022 3 204 0.0 1.6 0.00 0.00 0.00 81 1014.9
20260507054019 3 203 0.0 1.6 0.00 0.00 0.00 81 1015.0
20260507053034 3 212 0.0 3.2 0.00 0.00 0.00 81 1014.9
20260507052029 3 222 1.6 3.2 0.00 0.00 0.00 82 1014.9
20260507051024 3 211 1.6 3.2 0.00 0.00 0.00 82 1014.8
20260507050039 3 172 1.6 1.6 0.00 0.00 0.00 82 1014.7
20260507045035 3 222 0.0 1.6 0.00 0.00 0.00 85 1014.7
20260507044030 3 233 1.6 3.2 0.00 0.00 0.00 87 1014.7
20260507043025 2 244 3.2 4.8 0.00 0.00 0.00 88 1014.5
20260507042020 2 172 1.6 3.2 0.00 0.00 0.00 89 1014.3
20260507041036 2 231 3.2 6.4 0.00 0.00 0.00 88 1014.7
20260507040031 2 233 1.6 3.2 0.00 0.00 0.00 89 1014.2
20260507035027 2 149 3.2 4.8 0.00 0.00 0.00 88 1014.3
20260507034022 2 152 1.6 3.2 0.00 0.00 0.00 87 1014.4
20260507033017 1 133 1.6 3.2 0.00 0.00 0.00 87 1014.6
20260507032032 1 209 1.6 3.2 0.00 0.00 0.00 88 1014.8
20260507031047 1 211 1.6 3.2 0.00 0.00 0.00 87 1014.6
20260507030042 1 214 1.6 3.2 0.00 0.00 0.00 86 1014.3
20260507025017 1 201 0.0 1.6 0.00 0.00 0.00 89 1014.2
20260507024033 0 0.0 0.0 0.00 0.00 0.00 89 1014.3
20260507023029 0 0.0 0.0 0.00 0.00 0.00 88 1014.3
20260507022023 0 184 0.0 1.6 0.00 0.00 0.00 87 1014.2
20260507021018 1 208 0.0 1.6 0.00 0.00 0.00 87 1014.2
20260507020034 0 214 0.0 1.6 0.00 0.00 0.00 88 1014.3
20260507015029 0 0.0 0.0 0.00 0.00 0.00 88 1014.3
20260507014024 0 0.0 0.0 0.00 0.00 0.00 87 1014.1
20260507013040 0 183 0.0 1.6 0.00 0.00 0.00 86 1014.1
20260507012055 0 217 0.0 1.6 0.00 0.00 0.00 87 1014.1
20260507011030 0 225 1.6 3.2 0.00 0.00 0.00 89 1014.0
20260507010025 0 0.0 0.0 0.00 0.00 0.00 87 1013.9
20260507005020 0 0.0 0.0 0.00 0.00 0.00 84 1013.8
20260507004035 0 0.0 0.0 0.00 0.00 0.00 84 1013.7
20260507003030 1 166 0.0 1.6 0.00 0.00 0.00 80 1013.7
20260507002025 1 0.0 0.0 0.00 0.00 0.00 80 1013.8
20260507001021 2 0.0 0.0 0.00 0.00 0.00 77 1013.9
20260507000015 2 0.0 0.0 0.00 0.00 0.00 75 1013.8
20260506235031 3 188 0.0 1.6 0.00 0.00 0.00 73 1013.8
20260506234047 3 0.0 0.0 0.00 0.00 0.00 69 1013.7
20260506233042 3 0.0 0.0 0.00 0.00 0.00 69 1013.7
20260506232017 4 202 0.0 1.6 0.00 0.00 0.00 65 1013.5
20260506231032 4 179 0.0 1.6 0.00 0.00 0.00 66 1013.4
20260506230108 5 211 1.6 4.8 0.00 0.00 0.00 62 1013.3
20260506225103 4 194 1.6 4.8 0.00 0.00 0.00 64 1013.2
20260506224018 5 203 1.6 3.2 0.00 0.00 0.00 62 1013.2